Location: Tokyo
(35.7000°N, 139.7667°E)
Time: 10:41:46
(UTC+09:00)

ATLAS 5 CENTAUR R/B - Pass Details

Date: 12 October 2012
Orbit: 563 x 1096 km, 63.3° (Epoch: 19 November)

Event Time Altitude Azimuth Distance (km) Brightness Sun altitude
Rises 18:34:59 0° 340° (NNW) 3,721 5.9 -18.1°
Reaches altitude 10° 18:38:37 10° 360° (N) 2,846 5.0 -18.9°
Maximum altitude 18:42:56 17° 39° (NE) 2,411 4.2 -19.8°
Enters shadow 18:43:36 17° 46° (NE) 2,431 4.2 -19.9°
